Погода в Окунево

Россия / Тюменская область     55°43′02″N   68°41′31″E
темп.,
°C
ветер,
м/с
пор.,
м/с
влажн.,
%
обл.,
%
осадки,
мм/ч
давл.,
гПа
погр.,
м
28 января, чт
чт2823:00−7зюз499476 0.0 1028176
02:00−7зюз5109464 0.0 1028225
05:00−8зюз5109477 0.0 1029203
08:00−7юз61192100 0.0 1028270
11:00−6зюз7139199 0.0 1027303
14:00−4зюз81684100 0.0 1026451
17:00−5зюз81786100 0.0 1026488
20:00−5зюз91887100 0.0 1025521
29 января, пт
пт2923:00−5зюз91786100 0.0 1024492
02:00−7зюз81587100 0.0 1025408
05:00−8зюз61388100 0.0 1026341
08:00−9зюз61190100 0.0 1026264
11:00−9зюз51091100 0.0 1027309
14:00−7зюз5990100 0.0 1027351
17:00−10зюз4893100 0.0 1028173
20:00−11зюз3493100 0.0 102861
30 января, сб
сб3023:00−12юз3392100 0.0 102826
02:00−12ююз3390100 0.0 102823
05:00−12ююз3388100 0.0 102823
08:00−13ююв338672 0.0 102723
11:00−9юв488780 0.0 1026178
14:00−6юв5986100 0.0 1025280
17:00−7юв41089100 0.0 1024213
20:00−7юв51188100 0.0 1022240
31 января, вс
вс3123:00−8ююв5988100 0.0 1021202
02:00−9ю4988100 0.0 1020169
05:00−9ю4890100 0.0 1019154
08:00−9ююз3693100 0.0 1018110
11:00−7юз359597 0.2 1018261
14:00−6з359595 0.0 1019269
17:00−10з349595 0.0 102043
20:00−12зсз349550 0.0 102143
1 февраля, пн
пн123:00−13зсз339647 0.0 102227
02:00−14сз239727 0.0 102420
05:00−15зсз229717 0.0 102420
08:00−16юз1110031 0.0 102420
11:00−12ю239537 0.0 1025103
14:00−9ю469438 0.0 1024229
17:00−12ююв479558 0.0 1022121
20:00−10ю51193100 0.0 1020263